"Time","Temp","Dewpoint","Humidity","Pressure","Direction","Speed","Gust","Precip","PrecipRate"
"00:04:58","68.9","67.7","96.1","29.94","321","0","0","0.00","0.01"
"00:09:59","68.8","67.7","96.2","29.94","321","0","0","0.00","0.01"
"00:14:58","68.8","67.9","97","29.94","321","0","0","0.00","0.01"
"00:19:58","68.8","67.9","97","29.93","321","0","0","0.00","0.01"
"00:24:58","68.8","67.8","96.9","29.93","321","0","0","0.00","0.01"
"00:29:58","68.6","67.5","96.4","29.93","321","0","0","0.00","0.01"
"00:34:58","68.5","67.6","97","29.92","321","0","0","0.00","0.01"
"00:39:59","68.5","67.6","97","29.92","321","0","0","0.00","0.01"
"00:44:59","68.3","67.4","97","29.92","321","0","0","0.00","0.01"
"00:49:59","68.2","67.3","97","29.92","321","0","0","0.00","0.01"
"00:54:59","68.4","67.5","97","29.92","321","0","0","0.00","0.00"
"00:59:55","68.3","67.4","97","29.92","321","0","0","0.00","0.00"
"01:04:56","68.3","67.4","97","29.92","321","0","0","0.00","0.00"
"01:09:56","68.4","67.5","97","29.92","321","0","0","0.00","0.00"
"01:14:57","68.4","67.5","97","29.93","321","0.4","2.4","0.00","0.00"
"01:19:59","68.4","67.5","97","29.93","321","0.4","2.3","0.00","0.00"
"01:24:55","68.3","67.4","97","29.93","321","0","0","0.00","0.00"
"01:29:59","68.2","67.3","97","29.94","321","0","1.2","0.00","0.00"
"01:34:56","68.1","67.2","97","29.94","321","0","1.2","0.00","0.00"
"01:39:56","68","67.1","97","29.94","321","0","0","0.00","0.00"
"01:44:56","68","67.1","97","29.94","321","0","0","0.00","0.00"
"01:49:56","68","67.1","97","29.94","321","0.1","1.2","0.00","0.00"
"01:54:56","68","67.1","97","29.94","321","0.3","1.2","0.00","0.00"
"01:59:56","68.1","67.2","97","29.94","321","0.4","2.4","0.00","0.00"
"02:04:57","68.1","67.2","97","29.94","321","0","1.2","0.00","0.00"
"02:09:56","68.1","67.2","97","29.94","321","0","0","0.00","0.00"
"02:14:58","68.1","67.2","97","29.94","321","0","0","0.00","0.00"
"02:19:57","68.1","67.2","97","29.93","321","0","0","0.00","0.00"
"02:24:58","68.1","67.2","97","29.93","321","0.1","2.4","0.00","0.00"
"02:29:57","68","67.1","97","29.93","321","0.2","2.4","0.00","0.00"
"02:34:58","68","67.1","97","29.93","321","0.6","2.4","0.00","0.00"
"02:39:58","67.9","67","97","29.93","321","0","0","0.00","0.00"
"02:44:58","67.8","66.9","97","29.93","321","0","0","0.00","0.00"
"02:49:58","67.7","66.8","97","29.93","321","0","0","0.00","0.00"
"02:54:58","67.6","66.7","97","29.93","321","0","0","0.00","0.00"
"02:59:57","67.5","66.6","97","29.93","321","0","0","0.00","0.00"
"03:04:56","67.4","66.5","97","29.93","321","0","0","0.00","0.00"
"03:09:59","67.3","66.4","97","29.93","321","0","0","0.00","0.00"
"03:14:57","67.3","66.4","97","29.93","318","0.4","3.6","0.00","0.00"
"03:19:57","67.3","66.4","97","29.92","317","0.7","3.5","0.00","0.00"
"03:24:57","67.2","66.3","97","29.92","313","0.7","3.6","0.00","0.00"
"03:29:57","67.1","66.2","97","29.92","7","1.3","3.6","0.00","0.00"
"03:34:56","67","66.1","97","29.92","15","0.9","3.6","0.00","0.00"
"03:39:57","66.9","66","97","29.92","15","0.2","2.3","0.00","0.00"
"03:44:58","66.8","65.9","97","29.92","15","0.4","3.6","0.00","0.00"
"03:49:57","66.7","65.8","97","29.92","14","1.6","4.8","0.00","0.00"
"03:54:59","66.6","65.7","97","29.92","350","1","6","0.00","0.00"
"03:59:57","66.5","65.6","97","29.92","297","1.7","5.8","0.00","0.00"
"04:04:55","66.5","65.6","97","29.92","320","1.8","6","0.00","0.00"
"04:09:58","66.5","65.6","97","29.92","351","1.8","5.8","0.00","0.00"
"04:14:57","66.5","65.3","96.1","29.92","335","1.8","4.8","0.00","0.00"
"04:19:59","66.5","65.3","96","29.92","283","1.9","7.2","0.00","0.00"
"04:24:56","66.5","65.3","96","29.92","324","2.4","6","0.00","0.00"
"04:29:57","66.5","65.3","96","29.92","348","1.5","5.8","0.00","0.00"
"04:34:56","66.5","65.1","95.3","29.92","348","0.8","2.4","0.00","0.00"
"04:39:57","66.5","65","95","29.92","342","1.4","4.8","0.00","0.00"
"04:44:57","66.4","64.9","95","29.93","342","1.3","3.6","0.00","0.00"
"04:49:57","66.3","64.8","95","29.93","342","0.9","3.6","0.00","0.00"
"04:54:57","66.2","64.7","95","29.93","342","0.7","3.5","0.00","0.00"
"04:59:57","66.1","64.7","95.3","29.93","342","0.4","3.6","0.00","0.00"
"05:04:58","66.1","64.6","95","29.93","342","1","4.8","0.00","0.00"
"05:09:58","66","64.7","95.6","29.93","342","0.4","2.4","0.00","0.00"
"05:14:56","66","64.8","96","29.94","342","0.5","2.4","0.00","0.00"
"05:19:59","66","64.8","96","29.94","342","0.5","2.4","0.00","0.00"
"05:24:59","66","64.8","96","29.94","342","0.6","2.4","0.00","0.00"
"05:29:59","65.9","64.7","96","29.94","342","0.2","1.2","0.00","0.00"
"05:34:59","65.9","64.7","96","29.94","342","0.1","1.2","0.00","0.00"
"05:39:56","65.9","64.7","96","29.94","342","0.3","2.4","0.00","0.00"
"05:44:56","65.9","64.7","96","29.94","342","0","0","0.00","0.00"
"05:49:57","65.8","64.6","96","29.94","342","0","0","0.00","0.00"
"05:54:57","65.8","64.7","96.4","29.94","342","0","0","0.00","0.00"
"05:59:57","65.8","64.9","96.8","29.95","342","0","1.2","0.00","0.00"
"06:04:58","65.8","64.9","97","29.95","342","0.2","2.4","0.00","0.00"
"06:09:59","65.8","64.9","97","29.95","342","0.1","2.4","0.00","0.00"
"06:14:57","65.8","64.8","96.7","29.95","342","0.1","2.3","0.00","0.00"
"06:19:57","65.7","64.8","97","29.95","342","0","0","0.00","0.00"
"06:24:57","65.7","64.8","96.8","29.95","342","0","0","0.00","0.00"
"06:29:58","65.7","64.6","96.3","29.95","342","0","0","0.00","0.00"
"06:34:58","65.7","64.6","96.3","29.95","342","0.2","2.4","0.00","0.00"
"06:39:59","65.6","64.4","96","29.95","342","0.2","2.4","0.00","0.00"
"06:44:56","65.6","64.4","96","29.96","342","0.3","3.6","0.00","0.00"
"06:49:56","65.6","64.4","96","29.96","342","0.3","3.5","0.00","0.00"
"06:54:56","65.5","64.3","96","29.96","342","0.4","3.6","0.00","0.00"
"06:59:57","65.5","64.3","96","29.96","342","0.5","2.4","0.00","0.00"
"07:04:58","65.6","64.4","96","29.96","336","0.2","3.6","0.00","0.00"
"07:09:57","65.6","64.4","96","29.96","336","0.3","1.2","0.00","0.00"
"07:14:59","65.6","64.4","96","29.96","336","0.9","2.4","0.00","0.00"
"07:19:59","65.7","64.5","96","29.96","336","0.3","2.4","0.00","0.00"
"07:24:56","65.8","64.6","96","29.96","336","0.1","2.3","0.00","0.00"
"07:29:56","65.8","64.6","96","29.97","334","1.4","3.6","0.00","0.00"
"07:34:59","65.9","64.7","96","29.97","331","1.7","4.8","0.00","0.00"
"07:39:59","66.2","65","96","29.97","331","1.6","4.8","0.00","0.00"
"07:44:59","66.4","65","95.3","29.97","331","0.8","3.6","0.00","0.00"
"07:49:58","66.5","65","95","29.97","331","0.9","3.5","0.00","0.00"
"07:54:58","66.5","64.9","94.6","29.97","331","0.5","2.4","0.00","0.00"
"07:59:59","66.6","64.9","94.4","29.98","331","0.1","1.2","0.00","0.00"
"08:04:59","66.6","64.8","94.1","29.98","331","0","0","0.00","0.00"
"08:09:59","66.7","64.9","94","29.98","331","0.3","2.4","0.00","0.00"
"08:14:56","66.9","65.1","94.1","29.98","331","0.9","2.4","0.00","0.00"
"08:19:56","67.2","65.6","94.8","29.98","331","1","3.6","0.00","0.00"
"08:24:59","67.4","65.5","93.7","29.98","331","2","4.8","0.00","0.00"
"08:29:59","67.6","65.5","93","29.98","331","2.1","4.8","0.00","0.00"
"08:34:58","68","65.6","92","29.98","331","2.6","7.2","0.00","0.00"
"08:39:58","68.5","65.6","90.5","29.98","331","2.2","7.2","0.00","0.00"
"08:44:59","68.8","65.5","89.2","29.98","350","1.6","6","0.00","0.00"
"08:49:58","69.1","65.9","89.7","29.98","355","1","6","0.00","0.00"
"08:54:58","69.3","65.4","87.5","29.98","350","2.9","6","0.00","0.00"
"08:59:58","69.3","65.2","86.8","29.99","348","0.9","4.6","0.00","0.00"
"09:04:59","69.3","65.4","87.2","29.99","348","0.8","4.8","0.00","0.00"
"09:09:58","69.4","65.3","86.9","29.99","348","1","4.8","0.00","0.00"
"09:14:59","69.4","65.4","87","30.00","348","0.6","2.4","0.00","0.00"
"09:19:56","69.5","65.5","87.2","30.00","348","1.4","3.6","0.00","0.00"
"09:24:58","69.5","65.1","86","30.00","346","1.5","4.8","0.00","0.00"
"09:29:58","69.6","65.3","86","30.00","337","0.7","4.8","0.00","0.00"
"09:34:57","69.8","65.4","85.8","30.00","331","0.8","4.6","0.00","0.00"
"09:39:57","70.1","65.6","85.7","30.00","329","1","3.6","0.00","0.00"
"09:44:58","70.2","65.4","84.7","30.01","322","0.7","2.4","0.00","0.00"
"09:49:57","70.6","65.6","84.1","30.01","308","1.1","3.6","0.00","0.00"
"09:54:58","71.9","66.3","82.4","30.01","277","0.8","4.8","0.00","0.00"
"09:59:58","72.3","65.8","80","30.01","301","2.5","7.2","0.00","0.00"
"10:04:58","72.7","65.8","79.2","30.01","286","2.5","4.8","0.00","0.00"
"10:09:57","73.6","66.5","78.5","30.01","238","2.1","4.8","0.00","0.00"
"10:14:58","73.7","66","77.1","30.01","280","1.9","4.8","0.00","0.00"
"10:19:57","74.2","66.3","76.2","30.01","303","2","6","0.00","0.00"
"10:24:57","74.5","66.1","75.1","30.01","338","3.4","7.2","0.00","0.00"
"10:29:57","74.6","65.9","74.5","30.01","325","4.3","8.4","0.00","0.00"
"10:34:56","74.8","66.5","75.5","30.01","322","2.4","14.4","0.00","0.00"
"10:39:56","75","65.6","72.5","30.01","278","4.7","16.1","0.00","0.00"
"10:44:56","75.1","65.5","72.1","30.01","341","4.7","13.2","0.00","0.00"
"10:49:59","75.5","65.3","70.7","30.01","348","4.1","15","0.00","0.00"
"10:54:58","75.5","65.1","70.2","30.01","335","4.7","14.4","0.00","0.00"
"10:59:58","75.5","65.5","71.2","30.01","338","5.4","15","0.00","0.00"
"11:04:58","75.8","65.5","70.5","30.01","296","4","12.7","0.00","0.00"
"11:09:57","76.1","65.8","70.5","30.01","316","4.2","9.6","0.00","0.00"
"11:14:58","76.4","65.8","69.8","30.01","316","2.9","8.4","0.00","0.00"
"11:19:57","76.2","65.8","70.4","30.00","322","4.4","12","0.00","0.00"
"11:24:56","76.3","65.7","69.8","30.00","355","4.6","11.5","0.00","0.00"
"11:29:56","76.8","66","69.4","30.00","307","5.4","12","0.00","0.00"
"11:34:59","77.1","66.3","69.4","30.00","314","3.7","9.2","0.00","0.00"
"11:39:59","77.9","66.4","67.8","30.00","316","4.6","15.6","0.00","0.00"
"11:44:59","77.1","65.3","67.1","30.00","338","5.6","16.1","0.00","0.00"
"11:49:58","77.7","65.8","67","30.00","320","3.9","11.5","0.00","0.00"
"11:54:58","77.8","65.6","66.3","30.00","319","3.9","14.4","0.00","0.00"
"11:59:57","77.9","65.8","66.4","30.00","334","4.6","15","0.00","0.00"
"12:04:58","78","66.4","67.4","30.00","319","3.1","8.4","0.00","0.00"
"12:09:57","79","66.5","65.6","30.00","300","2.1","7.2","0.00","0.00"
"12:14:56","79.6","66.3","64","30.00","341","4.1","10.8","0.00","0.00"
"12:19:56","78.6","64.9","62.9","30.00","322","4","8.1","0.00","0.00"
"12:24:56","78.4","65.8","65.2","30.00","331","1.9","4.8","0.00","0.00"
"12:29:56","79.5","66.1","63.7","30.00","304","3.3","8.4","0.00","0.00"
"12:34:57","79.3","65.2","62.2","29.99","273","4.5","12","0.00","0.00"
"12:39:58","78.8","65.4","63.6","29.99","333","4.1","10.8","0.00","0.00"
"12:44:56","79.7","66","63","29.99","321","3.9","8.4","0.00","0.00"
"12:49:56","80.1","65.9","62.1","29.99","325","4.6","13.2","0.00","0.00"
"12:54:57","80.2","66.7","63.5","29.99","251","4.3","12","0.00","0.00"
"12:59:57","80.1","65.6","61.2","29.99","306","4.7","10.8","0.00","0.00"
"13:04:59","80.2","66.4","62.9","29.98","273","2.8","7.2","0.00","0.00"
"13:09:59","80","65.5","61.3","29.98","305","4.4","13.2","0.00","0.00"
"13:14:58","80.1","65.8","61.7","29.98","309","2.6","8.4","0.00","0.00"
"13:19:58","80.3","65.6","60.9","29.97","277","3.9","8.4","0.00","0.00"
"13:24:59","80.9","66.5","61.5","29.97","332","3.7","8.4","0.00","0.00"
"13:29:59","81.2","65.7","59.6","29.97","325","3.9","12","0.00","0.00"
"13:34:56","79.6","64.6","60.2","29.97","282","1.7","6","0.00","0.00"
"13:39:57","79.6","64.8","60.6","29.97","345","3.4","15","0.00","0.00"
"13:44:55","79","64.8","61.8","29.97","342","4.8","10.4","0.00","0.00"
"13:49:56","79.3","65.1","62","29.97","351","3.9","8.4","0.00","0.00"
"13:54:57","80.4","65.3","60.1","29.97","318","2.8","7.2","0.00","0.00"
"13:59:58","81.4","66.3","60.3","29.97","254","2.5","6","0.00","0.00"
"14:04:55","81.8","65.3","57.5","29.95","284","2.6","6","0.00","0.00"
"14:09:56","81.9","65.7","58.1","29.95","296","2.4","4.8","0.00","0.00"
"14:14:59","82.1","65.5","57.4","29.95","300","2","4.8","0.00","0.00"
"14:19:59","81.9","65.4","57.3","29.95","323","5.1","13.2","0.00","0.00"
"14:24:56","81.5","65.7","58.8","29.95","316","4","12.7","0.00","0.00"
"14:29:57","81.9","65.4","57.5","29.95","311","3.5","10.8","0.00","0.00"
"14:34:57","82.4","65.1","56","29.95","343","3.7","8.4","0.00","0.00"
"14:39:59","81.5","63.2","53.9","29.95","299","2","5.8","0.00","0.00"
"14:44:57","80.5","63.2","55.8","29.95","330","2.8","8.4","0.00","0.00"
"14:49:57","81.8","64.5","55.9","29.94","262","1.9","3.6","0.00","0.00"
"14:54:58","83","64.9","54.4","29.94","280","2.2","7.2","0.00","0.00"
"14:59:59","83.1","65.1","54.9","29.94","292","3.2","8.4","0.00","0.00"
"15:04:57","83.5","65.3","54.5","29.94","340","3.7","7.2","0.00","0.00"
"15:09:57","83.1","64.7","54","29.94","341","2.7","6.9","0.00","0.00"
"15:14:56","82.7","64.2","53.8","29.94","354","3.3","9.6","0.00","0.00"
"15:19:56","82.1","64.4","55.2","29.94","338","1.8","4.8","0.00","0.00"
"15:24:58","82.6","64.9","55.1","29.94","296","1.2","3.6","0.00","0.00"
"15:29:58","81.6","64.2","55.5","29.94","326","1.9","4.8","0.00","0.00"
"15:34:57","82.7","64.7","54.8","29.93","345","1.7","8.4","0.00","0.00"
"15:39:59","82.7","62.9","51.4","29.93","310","3.8","7.2","0.00","0.00"
"15:44:57","82.4","63.6","53.1","29.93","208","2.5","4.8","0.00","0.00"
"15:49:58","82.7","64.7","54.6","29.92","202","2.9","6","0.00","0.00"
"15:54:58","83.6","64","51.8","29.92","319","2.3","6","0.00","0.00"
"15:59:56","82.2","62.1","50.7","29.92","272","3.6","8.4","0.00","0.00"
"16:04:58","80.8","62.6","54.1","29.92","215","1.6","7.2","0.00","0.00"
"16:09:58","80.6","63.4","55.8","29.92","321","1.9","6","0.00","0.00"
"16:14:57","80.5","63.5","56.2","29.92","343","1.7","6","0.00","0.00"
"16:19:58","80.4","63.9","57.3","29.92","341","2.5","7.2","0.00","0.00"
"16:24:59","81","64.2","56.7","29.92","340","2.1","7.2","0.00","0.00"
"16:29:56","81.7","64.2","55.4","29.92","341","2.3","6.9","0.00","0.00"
"16:34:57","82.4","64.8","55.3","29.92","341","0.5","3.5","0.00","0.00"
"16:39:59","81.7","64.1","55.3","29.92","341","0.4","2.4","0.00","0.00"
"16:44:56","82.5","64.1","53.9","29.92","334","2.6","12","0.00","0.00"
"16:49:57","82.5","63.5","52.8","29.92","333","1.4","3.6","0.00","0.00"
"16:54:58","82.2","63.7","53.6","29.92","332","1","6","0.00","0.00"
"16:59:55","81.7","62.5","52.2","29.92","329","3.2","6","0.00","0.00"
"17:04:57","81","62.7","53.8","29.92","332","2.8","4.8","0.00","0.00"
"17:09:58","80.4","62.9","55.2","29.92","349","2.6","6","0.00","0.00"
"17:14:57","80.1","63","56.1","29.92","338","1.9","4.8","0.00","0.00"
"17:19:58","79.9","63","56.5","29.92","336","1.5","3.6","0.00","0.00"
"17:24:59","79.7","63.2","57.2","29.92","337","0.8","3.6","0.00","0.00"
"17:29:56","79.6","63","57","29.93","331","2.5","6","0.00","0.00"
"17:34:57","79.3","63.1","57.8","29.93","359","2","6","0.00","0.00"
"17:39:58","79.2","63.1","58","29.93","15","1.1","3.6","0.00","0.00"
"17:44:56","79.1","63.2","58.2","29.93","15","1.6","3.6","0.00","0.00"
"17:49:57","79.1","63.3","58.5","29.93","15","1.8","3.6","0.00","0.00"
"17:54:59","79.1","63.5","59","29.93","15","1.4","3.6","0.00","0.00"
"17:59:56","79.1","63.7","59.4","29.93","9","1.4","3.6","0.00","0.00"
"18:04:58","79","63.3","58.7","29.93","6","1.2","4.8","0.00","0.00"
"18:09:58","78.9","63.4","59","29.93","342","0.9","6","0.00","0.00"
"18:14:57","78.8","63.4","59.3","29.93","330","1","3.6","0.00","0.00"
"18:19:57","78.7","63.4","59.6","29.93","330","0.8","3.6","0.00","0.00"
"18:24:56","78.5","63.6","60.2","29.93","330","0.9","3.6","0.00","0.00"
"18:29:56","78.4","63.5","60.2","29.93","330","1.5","3.6","0.00","0.00"
"18:34:56","78.3","63.8","61.3","29.93","330","0.6","2.4","0.00","0.00"
"18:39:56","78.1","63.8","61.6","29.93","330","0.9","2.4","0.00","0.00"
"18:44:57","77.8","63.8","62.1","29.93","330","0.4","2.4","0.00","0.00"
"18:49:56","77.5","63.8","62.8","29.93","330","0.6","3.6","0.00","0.00"
"18:54:56","77.2","63.4","62.5","29.93","330","1.8","3.6","0.00","0.00"
"18:59:56","76.9","63.5","63.4","29.93","330","1","3.5","0.00","0.00"
"19:04:57","76.6","63.8","64.7","29.93","330","1.2","3.6","0.00","0.00"
"19:09:56","76.3","63.9","65.3","29.93","330","1.1","2.4","0.00","0.00"
"19:14:58","76.1","63.2","64.5","29.94","330","1.3","3.6","0.00","0.00"
"19:19:58","75.9","62.9","64.1","29.94","330","1.2","3.6","0.00","0.00"
"19:24:58","75.8","62.9","64.2","29.94","330","1","4.8","0.00","0.00"
"19:29:59","75.7","63.1","65","29.94","330","0.2","1.2","0.00","0.00"
"19:34:59","75.5","62.6","64.4","29.94","330","0.7","4.8","0.00","0.00"
"19:39:56","75.4","62.6","64.6","29.94","349","1.4","4.8","0.00","0.00"
"19:44:56","75.3","62.6","64.7","29.94","350","1.4","7.2","0.00","0.00"
"19:49:56","75.3","62.5","64.5","29.94","349","0.6","2.4","0.00","0.00"
"19:54:56","75.1","62.4","64.7","29.94","349","0.5","2.4","0.00","0.00"
"19:59:57","75","62.5","65.2","29.94","349","0.4","1.2","0.00","0.00"
"20:04:58","74.8","62.5","65.5","29.94","349","0.5","2.4","0.00","0.00"
"20:09:57","74.7","62.7","66.3","29.94","349","0.3","2.4","0.00","0.00"
"20:14:59","74.5","62.7","66.7","29.94","349","0.2","2.4","0.00","0.00"
"20:19:59","74.4","62.6","66.7","29.94","349","0","0","0.00","0.00"
"20:24:59","74.3","62.5","66.9","29.94","349","0","0","0.00","0.00"
"20:29:59","74.2","62.7","67.5","29.95","349","0","0","0.00","0.00"
"20:34:59","74","62.7","67.6","29.95","349","0","0","0.00","0.00"
"20:39:56","73.9","62.7","68","29.95","349","0","0","0.00","0.00"
"20:44:57","73.7","62.9","68.9","29.96","349","0","0","0.00","0.00"
"20:49:57","73.5","62.8","69.2","29.96","349","0","0","0.00","0.00"
"20:54:57","73.3","62.7","69.5","29.96","349","0","0","0.00","0.00"
"20:59:57","73.2","62.8","70.1","29.96","349","0","0","0.00","0.00"
"21:04:58","73","63","71","29.96","349","0","0","0.00","0.00"
"21:09:57","72.8","62.9","71.1","29.96","349","0","0","0.00","0.00"
"21:14:59","72.7","62.8","71.2","29.97","349","0","0","0.00","0.00"
"21:19:58","72.6","63.1","72.1","29.97","349","0","0","0.00","0.00"
"21:24:58","72.5","62.9","71.8","29.97","349","0","0","0.00","0.00"
"21:29:58","72.5","63.1","72.2","29.98","349","0","0","0.00","0.00"
"21:34:59","72.5","63.2","72.4","29.98","349","0","0","0.00","0.00"
"21:39:57","72.5","63.7","74.1","29.98","349","0","0","0.00","0.00"
"21:44:57","72.3","63.6","74.3","29.98","349","0","0","0.00","0.00"
"21:49:59","72.1","63.4","74","29.98","349","0","0","0.00","0.00"
"21:54:59","72","63.6","75","29.98","349","0","0","0.00","0.00"
"21:59:56","72.1","63.4","74.2","29.98","349","0","0","0.00","0.00"
"22:04:57","72.1","63.3","73.8","29.98","349","0","0","0.00","0.00"
"22:09:56","72.1","63.4","74.1","29.98","349","0","0","0.00","0.00"
"22:14:59","72.1","63.4","74.1","29.99","349","0","0","0.00","0.00"
"22:19:58","72","63.5","74.5","29.99","349","0","0","0.00","0.00"
"22:24:59","71.9","63","73.5","29.99","349","0","0","0.00","0.00"
"22:29:59","71.9","63","73.7","29.99","349","0","0","0.00","0.00"
"22:34:59","71.8","63","73.8","29.99","349","0","0","0.00","0.00"
"22:39:56","71.7","63.1","74.1","29.99","349","0","0","0.00","0.00"
"22:44:57","71.7","63","73.9","29.99","349","0","0","0.00","0.00"
"22:49:57","71.6","63","74.4","29.99","349","0","0","0.00","0.00"
"22:54:57","71.5","63.1","74.6","29.99","349","0","0","0.00","0.00"
"22:59:57","71.4","63.1","75","30.00","349","0","0","0.00","0.00"
"23:04:58","71.3","63","75","30.00","349","0","0","0.00","0.00"
"23:09:57","71.2","62.9","75","30.00","349","0","0","0.00","0.00"
"23:14:56","71.1","62.8","75","30.00","349","0","0","0.00","0.00"
"23:19:59","71","62.7","75","30.00","349","0","0","0.00","0.00"
"23:24:56","70.9","62.8","75.4","30.00","349","0","0","0.00","0.00"
"23:29:56","70.8","62.9","76.2","30.00","349","0","0","0.00","0.00"
"23:34:56","70.6","62.3","75","30.00","349","0","0","0.00","0.00"
"23:39:56","70.5","62.2","75","30.00","349","0","0","0.00","0.00"
"23:44:57","70.4","62.1","75","30.00","349","0","0","0.00","0.00"
"23:49:56","70.3","62","75.1","30.00","349","0","0","0.00","0.00"
